Location: Eimen
(51.8766°N, 9.7806°E)
Time: 05:29:21
(UTC+00:00)

Cosmos 2221 Rocket - Pass Details

Date: 17 August 2024
Orbit: 618 x 644 km, 82.5° (Epoch: 09 September)

Event Time Altitude Azimuth Distance (km) Brightness Sun altitude
Rises 02:01:19 0° 351° (N) 2,971 7.7 -16.6°
Reaches altitude 10° 02:03:36 10° 354° (N) 2,055 6.8 -16.4°
Maximum altitude 02:08:08 64° 77° (ENE) 714 4.0 -15.9°
Drops below altitude 10° 02:12:37 10° 159° (SSE) 2,030 5.9 -15.4°
Enters shadow 02:13:56 - 162° (SSE) 2,557 6.4 -15.3°
